Weather History for KOWB - November, 2013

Change the Weather History Date:

Monday, November 4, 2013

  Actual Average Record
Temperature  
Mean Temperature 51 °F -  
Max Temperature 61 °F 59 °F 81 °F (1975)
Min Temperature 41 °F 39 °F 14 °F (1991)
Degree Days  
Heating Degree Days 14    
Growing Degree Days 1 (Base 50)    
Moisture  
Dew Point 40 °F    
Average Humidity 66    
Maximum Humidity 82    
Minimum Humidity 44    
Precipitation  
Precipitation 0.00 in - - ()
Sea Level Pressure  
Sea Level Pressure 30.30 in    
Wind  
Wind Speed 8 mph (SSE)    
Max Wind Speed 21 mph    
Max Gust Speed 24 mph    
Visibility 10 miles    
Events Rain    
Averages and records for this station are not official NWS values.
T = Trace of Precipitation, MM = Missing Value Source: NWS Daily Summary

Daily Weather History Graph

Daily Weather History Graph

Search for Another Location

Airport or City:

Trip Planner

Search our weather history database for the weather conditions in past years. The results will help you decide how hot, cold, wet, or windy it might be!

Date:

Astronomy

Nov. 04, 2013 Rise Set
Actual Time 6:17 AM CST 4:46 PM CST
Civil Twilight 5:49 AM CST 5:13 PM CST
Nautical Twilight 5:18 AM CST 5:45 PM CST
Astronomical Twilight 4:48 AM CST 6:15 PM CST
Moon 7:26 AM CST (11/4) 5:52 PM CST (11/4)
Length of Visible Light 11h 23m
Length of Day
10h 29m
New Moon, 2% of the Moon is Illuminated
Nov 4
New Moon
Nov 9
First Quarter
Nov 17
Full
Nov 25
Last Quarter
Dec 2
New

Hourly Weather History & Observations

Time (CST) Temp. Windchill Dew Point Humidity Pressure Visibility Wind Dir Wind Speed Gust Speed Precip Events Conditions
12:56 AM 43.0 °F 38.8 °F 36.0 °F 76% 30.28 in 10.0 mi ESE 6.9 mph - N/A   Clear
1:56 AM 41.0 °F 37.1 °F 36.0 °F 82% 30.29 in 10.0 mi SE 5.8 mph - N/A   Clear
2:56 AM 41.0 °F 38.0 °F 36.0 °F 82% 30.29 in 10.0 mi ESE 4.6 mph - N/A   Clear
3:56 AM 43.0 °F 38.8 °F 36.0 °F 76% 30.28 in 10.0 mi SE 6.9 mph - N/A   Clear
4:56 AM 41.9 °F 39.0 °F 36.0 °F 79% 30.30 in 10.0 mi SE 4.6 mph - N/A   Clear
5:56 AM 41.9 °F 38.2 °F 36.9 °F 82% 30.32 in 10.0 mi SE 5.8 mph - N/A   Clear
6:56 AM 41.9 °F 40.0 °F 36.9 °F 82% 30.33 in 10.0 mi SE 3.5 mph - N/A   Clear
7:56 AM 45.9 °F 42.3 °F 37.9 °F 74% 30.34 in 10.0 mi SSE 6.9 mph - N/A   Clear
8:56 AM 52.9 °F - 39.9 °F 61% 30.34 in 10.0 mi SSE 9.2 mph - N/A   Clear
9:56 AM 54.9 °F - 41.0 °F 60% 30.33 in 10.0 mi South 13.8 mph 23.0 mph N/A   Clear
10:56 AM 59.0 °F - 41.0 °F 51% 30.31 in 10.0 mi South 15.0 mph 20.7 mph N/A   Clear
11:56 AM 61.9 °F - 39.9 °F 44% 30.29 in 10.0 mi SSW 20.7 mph 24.2 mph N/A   Clear
12:56 PM 59.9 °F - 39.9 °F 48% 30.29 in 10.0 mi South 13.8 mph 20.7 mph N/A   Clear
1:56 PM 59.9 °F - 41.9 °F 51% 30.28 in 10.0 mi South 11.5 mph - N/A   Clear
2:56 PM 59.0 °F - 41.0 °F 51% 30.28 in 10.0 mi South 10.4 mph - N/A   Clear
3:56 PM 57.9 °F - 39.9 °F 51% 30.29 in 10.0 mi South 9.2 mph - N/A   Clear
4:56 PM 56.8 °F - 41.0 °F 55% 30.29 in 10.0 mi South 9.2 mph - N/A   Clear
5:56 PM 55.9 °F - 41.0 °F 57% 30.29 in 10.0 mi SSE 9.2 mph - N/A   Clear
6:56 PM 54.9 °F - 41.9 °F 62% 30.30 in 10.0 mi SSE 5.8 mph - 0.00 in Rain Light Rain
7:56 PM 54.0 °F - 45.0 °F 72% 30.31 in 10.0 mi SE 4.6 mph - 0.00 in Rain Light Rain
8:56 PM 52.9 °F - 45.0 °F 74% 30.31 in 10.0 mi SSE 3.5 mph - 0.00 in   Partly Cloudy
9:56 PM 52.9 °F - 43.9 °F 71% 30.32 in 10.0 mi SE 3.5 mph - N/A   Clear
10:56 PM 52.9 °F - 43.0 °F 69% 30.30 in 10.0 mi SE 3.5 mph - N/A   Clear
11:56 PM 52.0 °F - 43.0 °F 71% 30.30 in 10.0 mi SE 3.5 mph - N/A   Clear